STARLINK-1283 (45389 NORAD) Tracking and Keplerian Element Data

This shows tracking and keplerian element data for the satellite.

Feedback or suggestion? Click here.




ElementValue
Catalog45389
NameSTARLINK-1283
Epoch Orbit175
Epoch Day188.91667824
Epoch Year2020
RAAN87.1718
Inclination53.0012
Eccentricity0.000207
Argument of Perigee79.0607
Mean Anonmoly147.5726
Mean Motion15.05584229
Decay Rate-0.00027131
L11 45389U 20019AF 20188.91667824 -.00027131 00000-0 -18497-2 0 9990
L22 45389 53.0012 87.1718 0002070 79.0607 147.5726 15.05584229 1758

Live tracking and technical data element details for STARLINK-1283 (NORAD 45389). STARLINK-1283 can be tracked NOW for your location showing map with azimuth and elevation plus other details from your city location.

Track the satellite on the map from your city or location and see movement details for azimuth, elevation, latitude, longitude, range, height, and movement on the map or in text.







IsCatalogInMostPopularTable: catalog: 45389, numindb: 21
Update: records affected: 1



GetName: 45389 STARLINK-1283

Hit Count: updated at: Wed, 08 Jul 2020 04:53:46 GMT